Bloomington, IN

5:10 AM EDT on March 23, 2017 (GMT -0400)
Monroe County

Weather History for KBMG - January, 2014

Change the Weather History Date:

Monday, January 6, 2014

  Actual Average Record
Temperature  
Mean Temperature -1 °F 29 °F  
Max Temperature 8 °F 38 °F 62 °F (2008)
Min Temperature -11 °F 21 °F -11 °F (2014)
Degree Days  
Heating Degree Days 66 36  
Month to date heating degree days 270 216  
Since 1 July heating degree days 2421 2289  
Cooling Degree Days 0 0  
Month to date cooling degree days 0 0  
Year to date cooling degree days 0 0  
Moisture  
Dew Point -14 °F    
Average Humidity 70    
Maximum Humidity 76    
Minimum Humidity 64    
Precipitation  
Precipitation T in 0.13 in 0.27 in (2002)
Month to date precipitation 1.63 0.80  
Year to date precipitation 1.63 0.80  
Sea Level Pressure  
Sea Level Pressure 30.28 in    
Wind  
Wind Speed 13 mph (WNW)    
Max Wind Speed 25 mph    
Max Gust Speed 37 mph    
Visibility 4 miles    
Events Rain , Snow    
T = Trace of Precipitation, MM = Missing Value Source: NWS Daily Summary

Daily Weather History Graph

Daily Weather History Graph

Search for Another Location

Airport or City:

Trip Planner

Search our weather history database for the weather conditions in past years. The results will help you decide how hot, cold, wet, or windy it might be!

Date:

Astronomy

Jan. 06, 2014 Rise Set
Actual Time 8:06 AM EST 5:38 PM EST
Civil Twilight 7:36 AM EST 6:08 PM EST
Nautical Twilight 7:02 AM EST 6:42 PM EST
Astronomical Twilight 6:30 AM EST 7:14 PM EST
Moon 11:23 AM EST (1/6) No Moon Set
Length of Visible Light 10h 32m
Length of Day
9h 32m
Waxing Crescent, 34% of the Moon is Illuminated
Jan 6
Waxing Crescent
Jan 7
First Quarter
Jan 15
Full
Jan 24
Last Quarter
Jan 30
New

Hourly Weather History & Observations

Time (EST) Temp. Windchill Dew Point Humidity Pressure Visibility Wind Dir Wind Speed Gust Speed Precip Events Conditions
12:12 AM 7.0 °F -12.6 °F 1.0 °F 77% 29.96 in 2.0 mi WNW 19.6 mph 31.1 mph 0.00 in Rain , Snow Light Freezing Rain
12:28 AM 7.0 °F -10.4 °F 1.0 °F 77% 29.98 in 3.0 mi WNW 15.0 mph 25.3 mph 0.00 in Rain , Snow Light Freezing Rain
12:44 AM 6.1 °F -14.3 °F -0.9 °F 73% 29.99 in 2.5 mi WNW 20.7 mph 33.4 mph 0.00 in Rain , Snow Light Freezing Rain
12:53 AM 6.1 °F -12.8 °F -0.0 °F 76% 30.04 in 3.0 mi WNW 17.3 mph 26.5 mph 0.00 in Rain , Snow Light Freezing Rain
1:04 AM 5.0 °F -13.6 °F -0.9 °F 76% 30.00 in 4.0 mi WNW 16.1 mph 29.9 mph 0.00 in Rain , Snow Light Freezing Rain
1:38 AM 3.9 °F -17.1 °F -2.0 °F 76% 30.04 in 2.0 mi WNW 20.7 mph 29.9 mph 0.00 in Rain , Snow Light Freezing Rain
1:53 AM 3.0 °F -14.1 °F -4.0 °F 73% 30.09 in 3.0 mi WNW 12.7 mph 27.6 mph 0.00 in Rain , Snow Light Freezing Rain
2:53 AM 1.0 °F -18.0 °F -6.0 °F 72% 30.15 in 4.0 mi WNW 15.0 mph 25.3 mph 0.00 in Rain , Snow Light Freezing Rain
3:14 AM -0.0 °F -17.1 °F -7.1 °F 72% 30.12 in 2.0 mi WNW 11.5 mph 19.6 mph 0.00 in Rain , Snow Light Freezing Rain
3:23 AM -0.0 °F -17.1 °F -7.1 °F 72% 30.13 in 3.0 mi WNW 11.5 mph 18.4 mph 0.00 in Rain , Snow Light Freezing Rain
3:53 AM -2.0 °F -21.2 °F -9.9 °F 69% 30.18 in 9.0 mi WNW 13.8 mph 29.9 mph 0.00 in Rain , Snow Light Freezing Rain
4:49 AM -2.2 °F -24.1 °F -9.4 °F 71% 30.17 in 2.0 mi West 18.4 mph 24.2 mph 0.00 in Rain , Snow Light Freezing Rain
4:53 AM -4.0 °F -27.0 °F -11.9 °F 69% 30.22 in 2.5 mi WNW 19.6 mph 32.2 mph 0.00 in Rain , Snow Light Freezing Rain
5:00 AM -5.1 °F -23.5 °F -13.0 °F 69% 30.18 in 6.0 mi WNW 11.5 mph 29.9 mph 0.00 in Rain , Snow Light Freezing Rain
5:53 AM -5.1 °F -21.5 °F -13.0 °F 69% 30.24 in 4.0 mi WNW 9.2 mph - 0.00 in Rain , Snow Light Freezing Rain
6:21 AM -6.0 °F -22.6 °F -13.0 °F 72% 30.21 in 1.8 mi WNW 9.2 mph 20.7 mph 0.00 in Rain , Snow Light Freezing Rain
6:32 AM -6.0 °F -26.3 °F -14.1 °F 68% 30.21 in 3.0 mi WNW 13.8 mph 20.7 mph 0.00 in Rain , Snow Light Freezing Rain
6:53 AM -8.0 °F -30.3 °F -16.1 °F 68% 30.28 in 4.0 mi WNW 16.1 mph 28.8 mph 0.00 in Rain , Snow Light Freezing Rain
7:13 AM -8.0 °F -29.6 °F -16.1 °F 68% 30.24 in 1.8 mi WNW 15.0 mph 21.9 mph 0.00 in Rain , Snow Light Freezing Rain
7:42 AM -9.0 °F -29.3 °F -16.1 °F 71% 30.25 in 2.5 mi WNW 12.7 mph 26.5 mph 0.00 in Rain , Snow Light Freezing Rain
7:50 AM -9.4 °F -31.4 °F -18.4 °F 65% 30.25 in 5.0 mi WNW 15.0 mph 25.3 mph 0.00 in Rain , Snow Light Freezing Rain
7:53 AM -9.9 °F -34.8 °F -18.0 °F 68% 30.30 in 5.0 mi WNW 19.6 mph 26.5 mph 0.00 in Rain , Snow Light Freezing Rain
8:28 AM -9.9 °F -31.3 °F -18.0 °F 68% 30.27 in 2.5 mi WNW 13.8 mph 24.2 mph 0.00 in Rain , Snow Light Freezing Rain
8:48 AM -9.4 °F -32.1 °F -18.4 °F 65% 30.28 in 6.0 mi West 16.1 mph 25.3 mph 0.00 in Rain , Snow Light Freezing Rain
8:53 AM -11.0 °F -33.5 °F -18.9 °F 68% 30.34 in 5.0 mi WNW 15.0 mph 25.3 mph 0.00 in Rain , Snow Light Freezing Rain
9:53 AM -9.9 °F -32.8 °F -18.9 °F 65% 30.38 in 2.5 mi WNW 16.1 mph 27.6 mph 0.00 in Rain , Snow Light Freezing Rain
10:06 AM -9.9 °F -32.1 °F -18.9 °F 65% 30.31 in 3.0 mi WNW 15.0 mph 26.5 mph 0.00 in Rain , Snow Light Freezing Rain
10:53 AM -9.0 °F -32.4 °F -18.0 °F 65% 30.38 in 8.0 mi WNW 17.3 mph 21.9 mph 0.00 in Rain , Snow Light Freezing Rain
11:35 AM -9.0 °F -30.9 °F -18.0 °F 65% 30.31 in 2.0 mi West 15.0 mph 24.2 mph 0.00 in Rain , Snow Light Freezing Rain
11:51 AM -7.6 °F -30.5 °F -16.6 °F 65% 30.30 in 3.0 mi West 17.3 mph 24.2 mph 0.00 in Rain , Snow Light Freezing Rain
11:53 AM -8.0 °F -31.0 °F -17.0 °F 65% 30.37 in 3.0 mi West 17.3 mph 24.2 mph 0.00 in Rain , Snow Light Freezing Rain
12:29 PM -8.0 °F -28.0 °F -17.0 °F 65% 30.29 in 2.0 mi WNW 12.7 mph 24.2 mph 0.00 in Rain , Snow Light Freezing Rain
12:38 PM -8.0 °F -28.0 °F -17.0 °F 65% 30.29 in 1.5 mi West 12.7 mph 25.3 mph 0.00 in Snow Light Snow
12:53 PM -8.0 °F -26.1 °F -16.1 °F 68% 30.35 in 1.0 mi West 10.4 mph - 0.00 in Snow Light Snow
1:05 PM -8.0 °F -30.3 °F -15.0 °F 71% 30.29 in 0.8 mi West 16.1 mph 21.9 mph 0.00 in Snow Light Snow
1:26 PM -7.1 °F -27.6 °F -14.1 °F 72% 30.29 in 0.5 mi West 13.8 mph - 0.00 in Snow Snow
1:37 PM -8.0 °F -28.0 °F -16.1 °F 68% 30.29 in 1.0 mi West 12.7 mph - 0.00 in Snow Light Snow
1:47 PM -7.6 °F -29.8 °F -16.6 °F 65% 30.29 in 3.0 mi West 16.1 mph 21.9 mph 0.00 in   Overcast
1:53 PM -7.1 °F -26.8 °F -16.1 °F 65% 30.36 in 6.0 mi West 12.7 mph 21.9 mph 0.00 in   Overcast
2:04 PM -8.0 °F -28.0 °F -17.0 °F 65% 30.29 in 1.5 mi West 12.7 mph 28.8 mph 0.00 in Snow Light Snow
2:15 PM -8.0 °F -30.3 °F -17.0 °F 65% 30.29 in 0.8 mi WNW 16.1 mph 25.3 mph 0.00 in Snow Light Snow
2:25 PM -8.0 °F -30.3 °F -17.0 °F 65% 30.30 in 1.2 mi WNW 16.1 mph 25.3 mph 0.00 in Snow Light Snow
2:53 PM -8.0 °F -30.3 °F -17.0 °F 65% 30.37 in 1.5 mi West 16.1 mph 24.2 mph 0.00 in   Overcast
3:01 PM -8.0 °F -28.8 °F -17.0 °F 65% 30.31 in 3.0 mi West 13.8 mph 25.3 mph 0.00 in   Overcast
3:08 PM -7.1 °F -26.8 °F -16.1 °F 65% 30.31 in 2.0 mi West 12.7 mph 23.0 mph 0.00 in Snow Light Snow
3:27 PM -8.0 °F -29.6 °F -17.0 °F 65% 30.32 in 1.5 mi West 15.0 mph 23.0 mph 0.00 in Snow Light Snow
3:53 PM -8.0 °F -31.0 °F -17.0 °F 65% 30.40 in 1.2 mi WNW 17.3 mph 23.0 mph 0.00 in Snow Light Snow
4:22 PM -8.0 °F -31.0 °F -18.0 °F 61% 30.34 in 2.5 mi West 17.3 mph 26.5 mph 0.00 in   Haze
4:36 PM -8.0 °F -26.1 °F -17.0 °F 65% 30.34 in 1.2 mi West 10.4 mph - 0.00 in Snow Light Snow
4:53 PM -8.0 °F -27.1 °F -17.0 °F 65% 30.42 in 2.5 mi West 11.5 mph 19.6 mph 0.00 in   Haze
5:01 PM -8.0 °F -29.6 °F -17.0 °F 65% 30.35 in 3.0 mi West 15.0 mph 21.9 mph N/A   Haze
5:05 PM -8.0 °F -28.8 °F -17.0 °F 65% 30.35 in 1.8 mi West 13.8 mph - 0.00 in Snow Light Snow
5:20 PM -8.0 °F -23.9 °F -17.0 °F 65% 30.35 in 3.0 mi West 8.1 mph 21.9 mph 0.00 in Snow Light Snow
5:53 PM -9.0 °F -27.4 °F -18.0 °F 65% 30.44 in 9.0 mi West 10.4 mph 19.6 mph 0.00 in   Scattered Clouds
6:53 PM -9.9 °F -26.3 °F -17.0 °F 71% 30.46 in 10.0 mi West 8.1 mph - N/A   Clear
7:53 PM -9.0 °F -26.4 °F -16.1 °F 71% 30.46 in 10.0 mi WSW 9.2 mph - N/A   Clear
8:53 PM -9.0 °F -23.8 °F -17.0 °F 68% 30.48 in 10.0 mi WSW 6.9 mph - N/A   Clear
9:53 PM -9.0 °F -26.4 °F -17.0 °F 68% 30.48 in 10.0 mi West 9.2 mph - N/A   Clear
10:53 PM -9.0 °F -26.4 °F -17.0 °F 68% 30.48 in 10.0 mi WSW 9.2 mph - N/A   Clear
11:53 PM -8.0 °F -26.1 °F -17.0 °F 65% 30.48 in 10.0 mi West 10.4 mph - N/A   Clear